| time (UTC) | temp F | wind direction | speed MPH | gust MPH | rain 1hr in | rain 24hr in | rain mn in | humidity % | barometer mb |
| 20260906002600 | 70 | 315 | 2.0 | 5.0 | 0.00 | 0.00 | 0.00 | 50 | 1021.0 |
| 20260906002055 | 70 | 300 | 4.0 | 6.0 | 0.00 | 0.00 | 0.00 | 47 | 1020.9 |
| 20260906001551 | 70 | 300 | 3.0 | 5.0 | 0.00 | 0.00 | 0.00 | 48 | 1020.9 |
| 20260906001051 | 70 | 309 | 4.0 | 6.0 | 0.00 | 0.00 | 0.00 | 48 | 1020.9 |
| 20260906000547 | 70 | 287 | 4.0 | 5.0 | 0.00 | 0.00 | 0.00 | 50 | 1020.7 |
| 20260906000042 | 70 | 308 | 3.0 | 5.0 | 0.00 | 0.00 | 0.00 | 48 | 1021.1 |
| 20260905235535 | 69 | 293 | 3.0 | 3.0 | 0.00 | 0.00 | 0.00 | 52 | 1021.1 |
| 20260905235031 | 68 | 322 | 1.0 | 3.0 | 0.00 | 0.00 | 0.00 | 55 | 1021.1 |
| 20260905234526 | 69 | 309 | 3.0 | 6.0 | 0.00 | 0.00 | 0.00 | 51 | 1021.0 |
| 20260905234026 | 70 | 329 | 3.0 | 3.0 | 0.00 | 0.00 | 0.00 | 48 | 1020.8 |
| 20260905233521 | 69 | 309 | 3.0 | 3.0 | 0.00 | 0.00 | 0.00 | 50 | 1021.1 |
| 20260905233021 | 69 | 325 | 2.0 | 5.0 | 0.00 | 0.00 | 0.00 | 51 | 1020.8 |
| 20260905232511 | 70 | 338 | 4.0 | 8.0 | 0.00 | 0.00 | 0.00 | 48 | 1021.0 |
| 20260905232007 | 71 | 356 | 4.0 | 5.0 | 0.00 | 0.00 | 0.00 | 47 | 1021.1 |
| 20260905231502 | 71 | 6 | 1.0 | 6.0 | 0.00 | 0.00 | 0.00 | 47 | 1021.0 |
| 20260905230958 | 71 | 306 | 3.0 | 6.0 | 0.00 | 0.00 | 0.00 | 47 | 1021.1 |
| 20260905230457 | 71 | 320 | 6.0 | 7.0 | 0.00 | 0.00 | 0.00 | 46 | 1021.1 |
| 20260905225955 | 71 | 339 | 3.0 | 7.0 | 0.00 | 0.00 | 0.00 | 47 | 1020.9 |
| 20260905225450 | 70 | 296 | 3.0 | 6.0 | 0.00 | 0.00 | 0.00 | 49 | 1021.2 |
| 20260905224946 | 70 | 304 | 8.0 | 10.0 | 0.00 | 0.00 | 0.00 | 47 | 1021.0 |
| 20260905224441 | 71 | 319 | 3.0 | 6.0 | 0.00 | 0.00 | 0.00 | 47 | 1021.2 |
| 20260905223939 | 71 | 277 | 3.0 | 11.0 | 0.00 | 0.00 | 0.00 | 47 | 1021.1 |
| 20260905223438 | 71 | 301 | 4.0 | 7.0 | 0.00 | 0.00 | 0.00 | 46 | 1021.2 |
| 20260905222933 | 71 | 325 | 3.0 | 6.0 | 0.00 | 0.00 | 0.00 | 47 | 1021.3 |
| 20260905222432 | 70 | 7 | 1.0 | 3.0 | 0.00 | 0.00 | 0.00 | 48 | 1021.5 |
| 20260905221927 | 69 | 25 | 3.0 | 5.0 | 0.00 | 0.00 | 0.00 | 48 | 1021.7 |
| 20260905221425 | 69 | 16 | 6.0 | 7.0 | 0.00 | 0.00 | 0.00 | 48 | 1021.3 |
| 20260905220920 | 69 | 311 | 3.0 | 6.0 | 0.00 | 0.00 | 0.00 | 49 | 1021.6 |
| 20260905220416 | 71 | 356 | 3.0 | 6.0 | 0.00 | 0.00 | 0.00 | 47 | 1021.3 |
| 20260905215915 | 70 | 308 | 3.0 | 7.0 | 0.00 | 0.00 | 0.00 | 48 | 1021.8 |
| 20260905215411 | 71 | 287 | 1.0 | 7.0 | 0.00 | 0.00 | 0.00 | 48 | 1021.7 |
| 20260905214907 | 70 | 51 | 3.0 | 8.0 | 0.00 | 0.00 | 0.00 | 49 | 1021.7 |
| 20260905214402 | 69 | 34 | 4.0 | 6.0 | 0.00 | 0.00 | 0.00 | 50 | 1021.7 |
| 20260905213856 | 69 | 335 | 6.0 | 8.0 | 0.00 | 0.00 | 0.00 | 50 | 1021.8 |
| 20260905213353 | 69 | 313 | 5.0 | 14.0 | 0.00 | 0.00 | 0.00 | 50 | 1021.9 |
| 20260905212853 | 69 | 56 | 9.0 | 14.0 | 0.00 | 0.00 | 0.00 | 48 | 1022.0 |
| 20260905212348 | 68 | 300 | 5.0 | 8.0 | 0.00 | 0.00 | 0.00 | 50 | 1022.0 |
| 20260905211841 | 68 | 8 | 6.0 | 8.0 | 0.00 | 0.00 | 0.00 | 51 | 1022.1 |
| 20260905211337 | 68 | 336 | 3.0 | 10.0 | 0.00 | 0.00 | 0.00 | 52 | 1022.1 |
| 20260905210833 | 68 | 306 | 4.0 | 9.0 | 0.00 | 0.00 | 0.00 | 53 | 1022.0 |
| 20260905210327 | 68 | 45 | 5.0 | 7.0 | 0.00 | 0.00 | 0.00 | 52 | 1022.4 |
| 20260905205826 | 68 | 23 | 7.0 | 7.0 | 0.00 | 0.00 | 0.00 | 53 | 1022.2 |
| 20260905205321 | 68 | 352 | 3.0 | 6.0 | 0.00 | 0.00 | 0.00 | 53 | 1022.0 |
| 20260905204820 | 68 | 319 | 1.0 | 7.0 | 0.00 | 0.00 | 0.00 | 52 | 1022.1 |
| 20260905204317 | 69 | 15 | 5.0 | 7.0 | 0.00 | 0.00 | 0.00 | 51 | 1022.2 |
| 20260905203815 | 70 | 315 | 5.0 | 7.0 | 0.00 | 0.00 | 0.00 | 51 | 1022.1 |
| 20260905203311 | 69 | 84 | 3.0 | 8.0 | 0.00 | 0.00 | 0.00 | 53 | 1022.4 |
| 20260905202807 | 69 | 51 | 3.0 | 11.0 | 0.00 | 0.00 | 0.00 | 52 | 1022.1 |
| 20260905202301 | 68 | 51 | 3.0 | 9.0 | 0.00 | 0.00 | 0.00 | 54 | 1022.2 |
| 20260905201757 | 67 | 355 | 4.0 | 6.0 | 0.00 | 0.00 | 0.00 | 54 | 1022.5 |
| 20260905201252 | 67 | 317 | 6.0 | 9.0 | 0.00 | 0.00 | 0.00 | 53 | 1022.4 |
| 20260905200747 | 67 | 39 | 1.0 | 2.0 | 0.00 | 0.00 | 0.00 | 55 | 1022.6 |
| 20260905200243 | 67 | 26 | 5.0 | 9.0 | 0.00 | 0.00 | 0.00 | 54 | 1022.5 |
| 20260905195741 | 67 | 34 | 3.0 | 7.0 | 0.00 | 0.00 | 0.00 | 55 | 1022.5 |
| 20260905195236 | 66 | 23 | 4.0 | 7.0 | 0.00 | 0.00 | 0.00 | 57 | 1022.7 |
| 20260905194732 | 66 | 3 | 4.0 | 6.0 | 0.00 | 0.00 | 0.00 | 53 | 1022.8 |
| 20260905194231 | 67 | 2 | 3.0 | 8.0 | 0.00 | 0.00 | 0.00 | 53 | 1022.7 |
| 20260905193730 | 68 | 41 | 5.0 | 7.0 | 0.00 | 0.00 | 0.00 | 51 | 1022.7 |
| 20260905193226 | 68 | 52 | 6.0 | 8.0 | 0.00 | 0.00 | 0.00 | 51 | 1022.8 |
| 20260905192721 | 67 | 304 | 5.0 | 7.0 | 0.00 | 0.00 | 0.00 | 55 | 1022.8 |
| 20260905192218 | 67 | 303 | 5.0 | 8.0 | 0.00 | 0.00 | 0.00 | 51 | 1022.8 |
| 20260905191717 | 67 | 354 | 8.0 | 9.0 | 0.00 | 0.00 | 0.00 | 51 | 1022.9 |
| 20260905191215 | 67 | 326 | 5.0 | 7.0 | 0.00 | 0.00 | 0.00 | 53 | 1022.7 |
| 20260905190714 | 67 | 312 | 3.0 | 8.0 | 0.00 | 0.00 | 0.00 | 56 | 1022.9 |
| 20260905190213 | 67 | 330 | 5.0 | 7.0 | 0.00 | 0.00 | 0.00 | 56 | 1022.8 |
| 20260905185712 | 66 | 4 | 3.0 | 7.0 | 0.00 | 0.00 | 0.00 | 55 | 1022.8 |
| 20260905185207 | 65 | 336 | 4.0 | 8.0 | 0.00 | 0.00 | 0.00 | 57 | 1023.0 |
| 20260905184707 | 65 | 333 | 1.0 | 6.0 | 0.00 | 0.00 | 0.00 | 59 | 1022.8 |
| 20260905184205 | 66 | 325 | 2.0 | 8.0 | 0.00 | 0.00 | 0.00 | 57 | 1023.0 |
| 20260905183659 | 65 | 4 | 4.0 | 10.0 | 0.00 | 0.00 | 0.00 | 57 | 1023.0 |
| 20260905183155 | 66 | 359 | 4.0 | 8.0 | 0.00 | 0.00 | 0.00 | 56 | 1023.0 |
| 20260905182654 | 65 | 359 | 3.0 | 8.0 | 0.00 | 0.00 | 0.00 | 56 | 1023.2 |
| 20260905182154 | 65 | 322 | 5.0 | 7.0 | 0.00 | 0.00 | 0.00 | 55 | 1023.2 |
| 20260905181650 | 64 | 52 | 2.0 | 6.0 | 0.00 | 0.00 | 0.00 | 56 | 1023.4 |
| 20260905181148 | 64 | 25 | 1.0 | 2.0 | 0.00 | 0.00 | 0.00 | 57 | 1023.5 |
| 20260905180643 | 63 | 311 | 4.0 | 6.0 | 0.00 | 0.00 | 0.00 | 59 | 1023.4 |
| 20260905180138 | 64 | 63 | 2.0 | 5.0 | 0.00 | 0.00 | 0.00 | 62 | 1023.5 |
| 20260905175637 | 63 | 36 | 2.0 | 6.0 | 0.00 | 0.00 | 0.00 | 63 | 1023.4 |
| 20260905175133 | 62 | 328 | 3.0 | 6.0 | 0.00 | 0.00 | 0.00 | 61 | 1023.5 |
| 20260905174629 | 62 | 258 | 0.0 | 1.0 | 0.00 | 0.00 | 0.00 | 63 | 1023.5 |
| 20260905174124 | 61 | 54 | 0.0 | 3.0 | 0.00 | 0.00 | 0.00 | 65 | 1023.6 |
| 20260905173620 | 62 | 17 | 2.0 | 2.0 | 0.00 | 0.00 | 0.00 | 64 | 1023.7 |
| 20260905173116 | 62 | 280 | 1.0 | 2.0 | 0.00 | 0.00 | 0.00 | 64 | 1023.7 |
| 20260905172614 | 61 | 10 | 3.0 | 3.0 | 0.00 | 0.00 | 0.00 | 65 | 1023.7 |
| 20260905172109 | 60 | 301 | 1.0 | 2.0 | 0.00 | 0.00 | 0.00 | 66 | 1023.9 |
| 20260905171606 | 61 | 30 | 2.0 | 3.0 | 0.00 | 0.00 | 0.00 | 66 | 1024.0 |
| 20260905171101 | 60 | 12 | 2.0 | 6.0 | 0.00 | 0.00 | 0.00 | 70 | 1024.0 |
| 20260905170558 | 59 | 298 | 0.0 | 3.0 | 0.00 | 0.00 | 0.00 | 71 | 1023.9 |
| 20260905170053 | 59 | 327 | 2.0 | 5.0 | 0.00 | 0.00 | 0.00 | 70 | 1024.0 |
| 20260905165548 | 59 | 345 | 0.0 | 1.0 | 0.00 | 0.00 | 0.00 | 71 | 1024.0 |
| 20260905165043 | 57 | 9 | 1.0 | 3.0 | 0.00 | 0.00 | 0.00 | 75 | 1024.0 |
| 20260905164537 | 58 | 325 | 3.0 | 5.0 | 0.00 | 0.00 | 0.00 | 74 | 1024.1 |
| 20260905164032 | 58 | 306 | 3.0 | 3.0 | 0.00 | 0.00 | 0.00 | 73 | 1024.0 |
| 20260905163528 | 58 | 343 | 2.0 | 3.0 | 0.00 | 0.00 | 0.00 | 74 | 1024.4 |
| 20260905163024 | 56 | 51 | 0.0 | 0.0 | 0.00 | 0.00 | 0.00 | 75 | 1024.2 |
| 20260905162520 | 57 | 342 | 1.0 | 2.0 | 0.00 | 0.00 | 0.00 | 75 | 1024.4 |
| 20260905162014 | 57 | 97 | 0.0 | 2.0 | 0.00 | 0.00 | 0.00 | 75 | 1024.1 |
| 20260905161509 | 56 | 170 | 1.0 | 1.0 | 0.00 | 0.00 | 0.00 | 77 | 1024.5 |
| 20260905161006 | 54 | 65 | 0.0 | 0.0 | 0.00 | 0.00 | 0.00 | 80 | 1024.5 |
| 20260905160500 | 53 | 43 | 2.0 | 2.0 | 0.00 | 0.00 | 0.00 | 82 | 1024.4 |
| 20260905155959 | 54 | 41 | 0.0 | 2.0 | 0.00 | 0.00 | 0.00 | 81 | 1024.5 |
| 20260905155454 | 53 | 115 | 0.0 | 2.0 | 0.00 | 0.00 | 0.00 | 82 | 1024.6 |
| 20260905154953 | 52 | 89 | 1.0 | 2.0 | 0.00 | 0.00 | 0.00 | 85 | 1024.7 |
| 20260905154448 | 51 | 130 | 1.0 | 2.0 | 0.00 | 0.00 | 0.00 | 87 | 1024.6 |
| 20260905153944 | 50 | 89 | 1.0 | 2.0 | 0.00 | 0.00 | 0.00 | 91 | 1024.6 |
| 20260905153440 | 49 | 129 | 0.0 | 1.0 | 0.00 | 0.00 | 0.00 | 94 | 1024.6 |
| 20260905152939 | 48 | 137 | 0.0 | 0.0 | 0.00 | 0.00 | 0.00 | 99 | 1024.8 |
| 20260905152439 | 46 | 22 | 0.0 | 0.0 | 0.00 | 0.00 | 0.00 | 99 | 1024.9 |
| 20260905151939 | 44 | 22 | 0.0 | 0.0 | 0.00 | 0.00 | 0.00 | 99 | 1024.7 |
| 20260905151435 | 44 | 26 | 0.0 | 0.0 | 0.00 | 0.00 | 0.00 | 99 | 1024.8 |
| 20260905150930 | 44 | 27 | 0.0 | 0.0 | 0.00 | 0.00 | 0.00 | 99 | 1024.8 |
| 20260905150430 | 43 | 27 | 0.0 | 0.0 | 0.00 | 0.00 | 0.00 | 99 | 1025.1 |
| 20260905145926 | 44 | 27 | 0.0 | 0.0 | 0.00 | 0.00 | 0.00 | 99 | 1025.1 |
| 20260905145421 | 44 | 28 | 0.0 | 0.0 | 0.00 | 0.00 | 0.00 | 99 | 1024.9 |
| 20260905144921 | 43 | 29 | 0.0 | 0.0 | 0.00 | 0.00 | 0.00 | 99 | 1025.0 |
| 20260905144417 | 44 | 29 | 0.0 | 0.0 | 0.00 | 0.00 | 0.00 | 99 | 1025.0 |
| 20260905143915 | 44 | 29 | 0.0 | 0.0 | 0.00 | 0.00 | 0.00 | 99 | 1024.8 |
| 20260905143410 | 43 | 29 | 0.0 | 0.0 | 0.00 | 0.00 | 0.00 | 99 | 1024.9 |
| 20260905142909 | 43 | 29 | 0.0 | 0.0 | 0.00 | 0.00 | 0.00 | 99 | 1024.7 |
| 20260905142408 | 43 | 29 | 0.0 | 0.0 | 0.00 | 0.00 | 0.00 | 99 | 1024.8 |
| 20260905141904 | 43 | 29 | 0.0 | 0.0 | 0.00 | 0.00 | 0.00 | 99 | 1024.7 |
| 20260905141359 | 43 | 29 | 0.0 | 0.0 | 0.00 | 0.00 | 0.00 | 99 | 1024.4 |
| 20260905140855 | 43 | 29 | 0.0 | 0.0 | 0.00 | 0.00 | 0.00 | 99 | 1024.5 |
| 20260905140355 | 43 | 29 | 0.0 | 0.0 | 0.00 | 0.00 | 0.00 | 99 | 1024.5 |
| 20260905135854 | 43 | 29 | 0.0 | 0.0 | 0.00 | 0.00 | 0.00 | 99 | 1024.5 |
| 20260905135350 | 43 | 29 | 0.0 | 0.0 | 0.00 | 0.00 | 0.00 | 99 | 1024.5 |
| 20260905134845 | 42 | 29 | 0.0 | 0.0 | 0.00 | 0.00 | 0.00 | 99 | 1024.2 |
| 20260905134343 | 43 | 29 | 0.0 | 0.0 | 0.00 | 0.00 | 0.00 | 99 | 1024.4 |
| 20260905133838 | 43 | 29 | 0.0 | 0.0 | 0.00 | 0.00 | 0.00 | 99 | 1024.4 |
| 20260905133334 | 43 | 29 | 0.0 | 0.0 | 0.00 | 0.00 | 0.00 | 99 | 1024.4 |
| 20260905132833 | 43 | 28 | 0.0 | 0.0 | 0.00 | 0.00 | 0.00 | 99 | 1024.1 |
| 20260905132329 | 43 | 28 | 0.0 | 0.0 | 0.00 | 0.00 | 0.00 | 99 | 1024.0 |
| 20260905131828 | 43 | 29 | 0.0 | 0.0 | 0.00 | 0.00 | 0.00 | 99 | 1023.9 |
| 20260905131324 | 43 | 29 | 0.0 | 0.0 | 0.00 | 0.00 | 0.00 | 99 | 1023.9 |
| 20260905130819 | 44 | 28 | 0.0 | 0.0 | 0.00 | 0.00 | 0.00 | 99 | 1023.7 |
| 20260905130317 | 44 | 30 | 0.0 | 0.0 | 0.00 | 0.00 | 0.00 | 99 | 1023.9 |
| 20260905125813 | 44 | 30 | 0.0 | 0.0 | 0.00 | 0.00 | 0.00 | 99 | 1023.8 |
| 20260905125308 | 44 | 29 | 0.0 | 0.0 | 0.00 | 0.00 | 0.00 | 99 | 1023.7 |
| 20260905124804 | 44 | 27 | 0.0 | 0.0 | 0.00 | 0.00 | 0.00 | 99 | 1023.5 |
| 20260905124300 | 44 | 27 | 0.0 | 0.0 | 0.00 | 0.00 | 0.00 | 99 | 1023.2 |
| 20260905123755 | 44 | 51 | 0.0 | 0.0 | 0.00 | 0.00 | 0.00 | 99 | 1023.5 |
| 20260905123253 | 45 | 51 | 0.0 | 0.0 | 0.00 | 0.00 | 0.00 | 99 | 1023.4 |
| 20260905122752 | 45 | 49 | 0.0 | 0.0 | 0.00 | 0.00 | 0.00 | 99 | 1023.4 |
| 20260905122251 | 45 | 123 | 0.0 | 0.0 | 0.00 | 0.00 | 0.00 | 99 | 1023.1 |
| 20260905121746 | 45 | 125 | 0.0 | 0.0 | 0.00 | 0.00 | 0.00 | 99 | 1023.4 |
| 20260905121243 | 45 | 40 | 0.0 | 0.0 | 0.00 | 0.00 | 0.00 | 99 | 1023.2 |
| 20260905120741 | 46 | 40 | 0.0 | 0.0 | 0.00 | 0.00 | 0.00 | 99 | 1023.1 |
| 20260905120236 | 46 | 39 | 0.0 | 0.0 | 0.00 | 0.00 | 0.00 | 99 | 1023.4 |
| 20260905115731 | 46 | 38 | 0.0 | 0.0 | 0.00 | 0.00 | 0.00 | 99 | 1023.2 |
| 20260905115225 | 46 | 38 | 0.0 | 0.0 | 0.00 | 0.00 | 0.00 | 99 | 1023.4 |
| 20260905114720 | 46 | 41 | 0.0 | 0.0 | 0.00 | 0.00 | 0.00 | 99 | 1022.9 |
| 20260905114219 | 46 | 41 | 0.0 | 0.0 | 0.00 | 0.00 | 0.00 | 99 | 1023.1 |
| 20260905113718 | 46 | 41 | 0.0 | 0.0 | 0.00 | 0.00 | 0.00 | 99 | 1023.1 |
| 20260905113214 | 46 | 41 | 0.0 | 0.0 | 0.00 | 0.00 | 0.00 | 99 | 1023.1 |
| 20260905112714 | 46 | 40 | 0.0 | 0.0 | 0.00 | 0.00 | 0.00 | 99 | 1023.2 |
| 20260905112209 | 46 | 41 | 0.0 | 0.0 | 0.00 | 0.00 | 0.00 | 99 | 1023.1 |
| 20260905111709 | 46 | 40 | 0.0 | 0.0 | 0.00 | 0.00 | 0.00 | 99 | 1023.2 |
| 20260905111209 | 46 | 40 | 0.0 | 0.0 | 0.00 | 0.00 | 0.00 | 99 | 1023.0 |
| 20260905110708 | 46 | 40 | 0.0 | 0.0 | 0.00 | 0.00 | 0.00 | 99 | 1022.9 |
| 20260905110203 | 46 | 63 | 0.0 | 0.0 | 0.00 | 0.00 | 0.00 | 99 | 1023.0 |
| 20260905105658 | 46 | 251 | 0.0 | 0.0 | 0.00 | 0.00 | 0.00 | 99 | 1023.2 |
| 20260905105152 | 46 | 254 | 0.0 | 0.0 | 0.00 | 0.00 | 0.00 | 99 | 1022.8 |
| 20260905104647 | 46 | 254 | 0.0 | 0.0 | 0.00 | 0.00 | 0.00 | 99 | 1022.8 |
| 20260905104143 | 46 | 299 | 0.0 | 0.0 | 0.00 | 0.00 | 0.00 | 99 | 1023.0 |
| 20260905103638 | 46 | 314 | 0.0 | 0.0 | 0.00 | 0.00 | 0.00 | 99 | 1022.9 |
| 20260905103133 | 46 | 314 | 0.0 | 1.0 | 0.00 | 0.00 | 0.00 | 99 | 1022.9 |
| 20260905102629 | 46 | 340 | 1.0 | 1.0 | 0.00 | 0.00 | 0.00 | 99 | 1022.7 |
| 20260905102126 | 46 | 332 | 1.0 | 1.0 | 0.00 | 0.00 | 0.00 | 99 | 1022.9 |
| 20260905101624 | 46 | 7 | 1.0 | 2.0 | 0.00 | 0.00 | 0.00 | 99 | 1022.8 |
| 20260905101122 | 46 | 105 | 0.0 | 0.0 | 0.00 | 0.00 | 0.00 | 99 | 1022.8 |
| 20260905100619 | 46 | 272 | 0.0 | 0.0 | 0.00 | 0.00 | 0.00 | 99 | 1023.0 |
| 20260905100114 | 46 | 281 | 0.0 | 0.0 | 0.00 | 0.00 | 0.00 | 99 | 1023.2 |
| 20260905095612 | 46 | 297 | 0.0 | 0.0 | 0.00 | 0.00 | 0.00 | 99 | 1023.0 |
| 20260905095108 | 46 | 310 | 0.0 | 0.0 | 0.00 | 0.00 | 0.00 | 99 | 1023.0 |
| 20260905094603 | 46 | 310 | 0.0 | 0.0 | 0.00 | 0.00 | 0.00 | 99 | 1022.8 |
| 20260905094103 | 45 | 297 | 1.0 | 2.0 | 0.00 | 0.00 | 0.00 | 99 | 1022.8 |
| 20260905093602 | 45 | 89 | 0.0 | 1.0 | 0.00 | 0.00 | 0.00 | 99 | 1022.7 |
| 20260905093059 | 45 | 221 | 0.0 | 0.0 | 0.00 | 0.00 | 0.00 | 99 | 1022.8 |
| 20260905092559 | 45 | 222 | 0.0 | 0.0 | 0.00 | 0.00 | 0.00 | 99 | 1022.8 |
| 20260905092055 | 45 | 222 | 1.0 | 1.0 | 0.00 | 0.00 | 0.00 | 99 | 1023.0 |
| 20260905091554 | 45 | 86 | 0.0 | 0.0 | 0.00 | 0.00 | 0.00 | 99 | 1022.9 |
| 20260905091048 | 45 | 52 | 0.0 | 0.0 | 0.00 | 0.00 | 0.00 | 99 | 1022.9 |
| 20260905090542 | 45 | 317 | 0.0 | 1.0 | 0.00 | 0.00 | 0.00 | 99 | 1022.6 |
| 20260905090038 | 45 | 315 | 1.0 | 2.0 | 0.00 | 0.00 | 0.00 | 99 | 1022.4 |
| 20260905085536 | 45 | 57 | 0.0 | 0.0 | 0.00 | 0.00 | 0.00 | 99 | 1022.4 |
| 20260905085033 | 45 | 58 | 0.0 | 0.0 | 0.00 | 0.00 | 0.00 | 99 | 1022.7 |
| 20260905084531 | 45 | 269 | 0.0 | 1.0 | 0.00 | 0.00 | 0.00 | 99 | 1022.6 |
| 20260905084027 | 45 | 111 | 0.0 | 0.0 | 0.00 | 0.00 | 0.00 | 99 | 1022.6 |
| 20260905083516 | 45 | 108 | 0.0 | 0.0 | 0.00 | 0.00 | 0.00 | 99 | 1023.1 |
| 20260905083013 | 45 | 107 | 0.0 | 0.0 | 0.00 | 0.00 | 0.00 | 99 | 1022.9 |
| 20260905082508 | 45 | 107 | 0.0 | 0.0 | 0.00 | 0.00 | 0.00 | 99 | 1023.2 |
| 20260905082003 | 45 | 108 | 0.0 | 0.0 | 0.00 | 0.00 | 0.00 | 99 | 1023.2 |
| 20260905081457 | 45 | 231 | 0.0 | 0.0 | 0.00 | 0.00 | 0.00 | 99 | 1023.0 |
| 20260905080956 | 44 | 251 | 0.0 | 0.0 | 0.00 | 0.00 | 0.00 | 99 | 1023.1 |
| 20260905080452 | 44 | 107 | 0.0 | 0.0 | 0.00 | 0.00 | 0.00 | 99 | 1023.1 |
| 20260905075950 | 44 | 248 | 0.0 | 0.0 | 0.00 | 0.00 | 0.00 | 99 | 1023.0 |
| 20260905075445 | 44 | 168 | 0.0 | 0.0 | 0.00 | 0.00 | 0.00 | 99 | 1022.8 |
| 20260905074943 | 44 | 71 | 0.0 | 0.0 | 0.00 | 0.00 | 0.00 | 99 | 1022.9 |
| 20260905074439 | 44 | 24 | 0.0 | 0.0 | 0.00 | 0.00 | 0.00 | 99 | 1022.8 |
| 20260905073935 | 44 | 282 | 0.0 | 0.0 | 0.00 | 0.00 | 0.00 | 99 | 1022.9 |
| 20260905073430 | 44 | 285 | 0.0 | 0.0 | 0.00 | 0.00 | 0.00 | 99 | 1023.4 |
| 20260905072925 | 44 | 40 | 0.0 | 0.0 | 0.00 | 0.00 | 0.00 | 99 | 1023.2 |
| 20260905072420 | 44 | 40 | 0.0 | 0.0 | 0.00 | 0.00 | 0.00 | 99 | 1023.1 |
| 20260905071916 | 44 | 40 | 0.0 | 0.0 | 0.00 | 0.00 | 0.00 | 99 | 1023.0 |
| 20260905071413 | 44 | 358 | 0.0 | 0.0 | 0.00 | 0.00 | 0.00 | 99 | 1023.1 |
| 20260905070912 | 44 | 356 | 0.0 | 0.0 | 0.00 | 0.00 | 0.00 | 99 | 1023.2 |
| 20260905070409 | 44 | 27 | 0.0 | 0.0 | 0.00 | 0.00 | 0.00 | 99 | 1023.4 |
| 20260905065903 | 44 | 348 | 0.0 | 0.0 | 0.00 | 0.00 | 0.00 | 99 | 1023.1 |
| 20260905065401 | 44 | 84 | 0.0 | 0.0 | 0.00 | 0.00 | 0.00 | 99 | 1022.9 |
| 20260905064856 | 44 | 85 | 0.0 | 0.0 | 0.00 | 0.00 | 0.00 | 99 | 1023.2 |
| 20260905064352 | 44 | 84 | 0.0 | 0.0 | 0.00 | 0.00 | 0.00 | 99 | 1023.2 |
| 20260905063851 | 44 | 84 | 0.0 | 0.0 | 0.00 | 0.00 | 0.00 | 99 | 1023.2 |
| 20260905063347 | 44 | 84 | 0.0 | 0.0 | 0.00 | 0.00 | 0.00 | 99 | 1023.4 |
| 20260905062843 | 44 | 84 | 0.0 | 0.0 | 0.00 | 0.00 | 0.00 | 99 | 1023.5 |
| 20260905062342 | 44 | 84 | 0.0 | 0.0 | 0.00 | 0.00 | 0.00 | 99 | 1023.5 |
| 20260905061838 | 44 | 84 | 0.0 | 0.0 | 0.00 | 0.00 | 0.00 | 99 | 1023.2 |
| 20260905061337 | 44 | 85 | 0.0 | 0.0 | 0.00 | 0.00 | 0.00 | 99 | 1023.0 |
| 20260905060832 | 44 | 85 | 0.0 | 0.0 | 0.00 | 0.00 | 0.00 | 99 | 1023.1 |
| 20260905060328 | 44 | 84 | 0.0 | 0.0 | 0.00 | 0.00 | 0.00 | 99 | 1023.0 |
| 20260905055827 | 44 | 84 | 0.0 | 0.0 | 0.00 | 0.25 | 0.25 | 99 | 1023.0 |
| 20260905055322 | 45 | 85 | 0.0 | 0.0 | 0.00 | 0.25 | 0.25 | 99 | 1022.9 |
| 20260905054822 | 45 | 85 | 0.0 | 0.0 | 0.00 | 0.25 | 0.25 | 99 | 1022.8 |
| 20260905054319 | 45 | 85 | 0.0 | 0.0 | 0.00 | 0.25 | 0.25 | 99 | 1022.7 |
| 20260905053818 | 45 | 85 | 0.0 | 0.0 | 0.00 | 0.25 | 0.25 | 99 | 1022.9 |
| 20260905053314 | 45 | 85 | 0.0 | 1.0 | 0.00 | 0.25 | 0.25 | 99 | 1022.8 |
| 20260905052814 | 45 | 84 | 0.0 | 0.0 | 0.00 | 0.25 | 0.25 | 99 | 1022.6 |
| 20260905052314 | 45 | 84 | 0.0 | 0.0 | 0.00 | 0.25 | 0.25 | 99 | 1022.8 |
| 20260905051813 | 45 | 84 | 0.0 | 0.0 | 0.00 | 0.25 | 0.25 | 99 | 1022.9 |
| 20260905051309 | 45 | 84 | 0.0 | 1.0 | 0.00 | 0.25 | 0.25 | 99 | 1022.8 |
| 20260905050806 | 46 | 83 | 0.0 | 0.0 | 0.00 | 0.25 | 0.25 | 99 | 1022.8 |
| 20260905050302 | 46 | 83 | 0.0 | 0.0 | 0.00 | 0.25 | 0.25 | 99 | 1022.8 |
| 20260905045757 | 46 | 84 | 0.0 | 0.0 | 0.00 | 0.25 | 0.25 | 99 | 1022.8 |
| 20260905045253 | 46 | 84 | 0.0 | 0.0 | 0.00 | 0.25 | 0.25 | 99 | 1023.1 |
| 20260905044748 | 46 | 84 | 0.0 | 0.0 | 0.00 | 0.25 | 0.25 | 99 | 1023.4 |
| 20260905044248 | 47 | 84 | 0.0 | 0.0 | 0.00 | 0.25 | 0.25 | 99 | 1023.0 |
| 20260905043746 | 47 | 84 | 0.0 | 0.0 | 0.00 | 0.25 | 0.25 | 99 | 1023.0 |
| 20260905043241 | 47 | 85 | 0.0 | 0.0 | 0.00 | 0.25 | 0.25 | 99 | 1023.2 |
| 20260905042737 | 47 | 85 | 0.0 | 0.0 | 0.00 | 0.25 | 0.25 | 99 | 1023.2 |
| 20260905042236 | 47 | 84 | 0.0 | 0.0 | 0.00 | 0.25 | 0.25 | 99 | 1023.2 |
| 20260905041732 | 47 | 84 | 0.0 | 0.0 | 0.00 | 0.25 | 0.25 | 98 | 1023.4 |
| 20260905041227 | 48 | 84 | 0.0 | 0.0 | 0.00 | 0.25 | 0.25 | 98 | 1023.2 |
| 20260905040722 | 48 | 82 | 0.0 | 0.0 | 0.00 | 0.25 | 0.25 | 98 | 1022.9 |
| 20260905040221 | 48 | 83 | 0.0 | 0.0 | 0.00 | 0.25 | 0.25 | 98 | 1022.9 |
| 20260905035721 | 49 | 146 | 0.0 | 0.0 | 0.00 | 0.25 | 0.25 | 98 | 1023.2 |
| 20260905035217 | 49 | 147 | 0.0 | 0.0 | 0.00 | 0.25 | 0.25 | 98 | 1023.1 |
| 20260905034713 | 50 | 110 | 0.0 | 0.0 | 0.00 | 0.25 | 0.25 | 97 | 1023.0 |
| 20260905034212 | 50 | 298 | 0.0 | 0.0 | 0.00 | 0.25 | 0.25 | 97 | 1022.8 |
| 20260905033711 | 50 | 314 | 0.0 | 1.0 | 0.00 | 0.25 | 0.25 | 97 | 1022.6 |
| 20260905033207 | 50 | 313 | 0.0 | 0.0 | 0.00 | 0.25 | 0.25 | 97 | 1022.8 |
| 20260905032706 | 50 | 311 | 1.0 | 1.0 | 0.00 | 0.25 | 0.25 | 97 | 1023.1 |
| 20260905032201 | 50 | 63 | 0.0 | 0.0 | 0.00 | 0.25 | 0.25 | 97 | 1023.1 |
| 20260905031657 | 50 | 159 | 0.0 | 0.0 | 0.00 | 0.25 | 0.25 | 97 | 1023.0 |
| 20260905031152 | 50 | 144 | 1.0 | 2.0 | 0.00 | 0.25 | 0.25 | 97 | 1022.9 |
| 20260905030647 | 50 | 137 | 0.0 | 0.0 | 0.00 | 0.25 | 0.25 | 97 | 1022.8 |
| 20260905030142 | 51 | 137 | 0.0 | 0.0 | 0.00 | 0.25 | 0.25 | 97 | 1022.8 |
| 20260905025637 | 51 | 139 | 0.0 | 1.0 | 0.00 | 0.25 | 0.25 | 97 | 1022.9 |
| 20260905025133 | 51 | 138 | 0.0 | 0.0 | 0.00 | 0.25 | 0.25 | 97 | 1022.9 |
| 20260905024629 | 51 | 139 | 0.0 | 0.0 | 0.00 | 0.25 | 0.25 | 97 | 1022.9 |
| 20260905024124 | 51 | 138 | 1.0 | 1.0 | 0.00 | 0.25 | 0.25 | 96 | 1023.2 |
| 20260905023620 | 51 | 15 | 0.0 | 0.0 | 0.00 | 0.25 | 0.25 | 96 | 1022.9 |
| 20260905023113 | 51 | 28 | 1.0 | 1.0 | 0.00 | 0.25 | 0.25 | 96 | 1022.9 |
| 20260905022613 | 51 | 66 | 0.0 | 0.0 | 0.00 | 0.25 | 0.25 | 95 | 1022.8 |
| 20260905022108 | 51 | 59 | 1.0 | 2.0 | 0.00 | 0.25 | 0.25 | 96 | 1022.6 |
| 20260905021608 | 51 | 54 | 0.0 | 2.0 | 0.00 | 0.25 | 0.25 | 96 | 1022.5 |
| 20260905021103 | 51 | 93 | 0.0 | 1.0 | 0.00 | 0.25 | 0.25 | 96 | 1022.5 |
| 20260905020602 | 51 | 133 | 1.0 | 2.0 | 0.00 | 0.25 | 0.25 | 96 | 1022.5 |
| 20260905020058 | 52 | 228 | 0.0 | 1.0 | 0.00 | 0.25 | 0.25 | 96 | 1022.5 |
| 20260905015556 | 52 | 219 | 1.0 | 1.0 | 0.00 | 0.25 | 0.25 | 96 | 1022.2 |
| 20260905015051 | 52 | 110 | 0.0 | 0.0 | 0.00 | 0.25 | 0.25 | 96 | 1022.6 |
| 20260905014545 | 52 | 28 | 0.0 | 0.0 | 0.00 | 0.25 | 0.25 | 95 | 1022.8 |
| 20260905014041 | 52 | 250 | 0.0 | 0.0 | 0.00 | 0.25 | 0.25 | 95 | 1022.9 |
| 20260905013537 | 52 | 187 | 0.0 | 1.0 | 0.00 | 0.25 | 0.25 | 95 | 1023.0 |
| 20260905013033 | 52 | 129 | 1.0 | 2.0 | 0.00 | 0.25 | 0.25 | 95 | 1022.8 |
| 20260905012527 | 52 | 359 | 0.0 | 0.0 | 0.07 | 0.25 | 0.25 | 94 | 1022.7 |
| 20260905012024 | 53 | 45 | 0.0 | 1.0 | 0.07 | 0.25 | 0.25 | 93 | 1022.4 |
| 20260905011520 | 53 | 65 | 0.0 | 0.0 | 0.00 | 0.24 | 0.24 | 92 | 1022.4 |
| 20260905011015 | 53 | 62 | 0.0 | 0.0 | 0.00 | 0.24 | 0.24 | 91 | 1022.6 |
| 20260905010515 | 54 | 132 | 0.0 | 0.0 | 0.05 | 0.24 | 0.24 | 92 | 1022.4 |
| 20260905010012 | 54 | 253 | 0.0 | 1.0 | 0.00 | 0.23 | 0.23 | 89 | 1022.2 |
| 20260905005507 | 54 | 79 | 0.0 | 0.0 | 0.00 | 0.23 | 0.23 | 88 | 1022.0 |
| 20260905005001 | 55 | 81 | 0.0 | 0.0 | 0.00 | 0.23 | 0.23 | 85 | 1021.9 |
| 20260905004457 | 56 | 81 | 0.0 | 1.0 | 0.00 | 0.23 | 0.23 | 82 | 1022.1 |
| 20260905003952 | 57 | 278 | 0.0 | 2.0 | 0.00 | 0.23 | 0.23 | 78 | 1021.6 |
| 20260905003448 | 58 | 118 | 0.0 | 0.0 | 0.00 | 0.23 | 0.23 | 71 | 1021.2 |
| 20260905002943 | 59 | 120 | 0.0 | 2.0 | 0.00 | 0.23 | 0.23 | 68 | 1021.2 |